Flag for Congo Dem.Rep. Weather past 2 weeks in Kinshasa, Congo Dem.Rep.

Now
79 °F

Passing clouds.


Feels Like: 81 °F
Forecast: 69 / 89 °F
Wind: 5 mph from Northwest

Location: Brazzaville / Maya-Maya

Current Time: Jul 30, 2014 at 7:58:36 PM

Latest Report: Jul 30, 2014 at 7:00 PM


Visibility: 5 mi

Pressure: 29.95 "Hg

Humidity: 65%

Dew point: 66 °F

Location of KinshasaLocation

Historic Weather in Kinshasa — Graph

°F

Kinshasa temperature yesterday

Maximum temperature yesterday: 82 °F (at 6:00 AM)
Minimum temperature yesterday: 68 °F (at 7:00 AM)
Average temperature yesterday: 75 °F

Past Weeks' High & Low Weather Summary

 TemperatureHumidityPressure
High88 °F (Jul 27, 3:00 PM)100% (Jul 27, 12:00 PM)30.12 "Hg (Jul 27, 12:00 PM)
Low63 °F (Jul 25, 7:00 AM)43% (Jul 26, 3:00 PM)29.83 "Hg (Jul 29, 3:00 PM)
Average74 °F72%30.01 "Hg
* Reported Jul 15 6:00 PM — Jul 30 6:00 PM, Kinshasa, Weather by CustomWeather, © 2014

Note: Actual official high and low records may vary slightly from our data, if they occured in-between our weather recording intervals... More about our weather records

Advertising

Kinshasa weather history for previous 24 hours

 ConditionsComfort  
Time TempWeatherWind HumidityBarometerVisibility
6:00 PM
Jul 30
81 °FScattered clouds.5 mph58%29.95 "Hg5 mi
5:00 PM82 °FPartly sunny.8 mph58%29.92 "Hg5 mi
4:00 PM82 °FScattered clouds.8 mph58%29.92 "Hg5 mi
3:00 PM82 °FScattered clouds.9 mph58%29.92 "Hg5 mi
2:00 PM81 °FScattered clouds.8 mph58%29.92 "Hg5 mi
1:00 PM79 °FPartly sunny.8 mph61%29.95 "Hg5 mi
12:00 PM77 °FPartly sunny.10 mph65%30.01 "Hg5 mi
11:00 AM75 °FPartly sunny.8 mph69%30.04 "Hg5 mi
10:00 AM73 °FBroken clouds.10 mph74%30.04 "Hg5 mi
9:00 AM72 °FMore clouds than sun.9 mph78%30.04 "Hg4 mi
8:00 AM70 °FOvercast.8 mph83%30.04 "Hg4 mi
7:00 AM70 °FOvercast.6 mph78%30.04 "Hg5 mi
6:00 AM70 °FOvercast.3 mph78%30.01 "Hg5 mi
5:00 AM70 °FPassing clouds.3 mph78%30.01 "Hg5 mi
4:00 AM70 °FPassing clouds.2 mph78%30.01 "Hg5 mi
3:00 AM68 °FPassing clouds.No wind83%30.01 "Hg5 mi
2:00 AM70 °FClear.3 mph78%30.01 "Hg5 mi
1:00 AM70 °FClear.5 mph78%30.01 "Hg5 mi
12:00 AM70 °FClear.8 mph78%30.04 "Hg5 mi
11:00 PM
Jul 29
70 °FClear.8 mph78%30.04 "Hg5 mi
10:00 PM72 °FClear.8 mph78%30.01 "Hg5 mi
9:00 PM73 °FClear.6 mph74%29.98 "Hg5 mi
8:00 PM75 °FClear.6 mph69%29.95 "Hg5 mi
7:00 PM77 °FClear.5 mph65%29.92 "Hg5 mi
Weather by CustomWeather, © 2014

See weather overviewHow to use our weather pages